Volver al catálogo

TOMORROW-S2

ActivoMeteoSSO
NORAD 60485·PAYLOAD·🇺🇸 United States

Lanzado Aug 16, 2024 desde Vandenberg Space Force Base

Loading…

Próximos Pases (próximas 24 horas)

TLE

ActualizadoSource: Space-Track

Época: Sep 14, 2026, 04:19 UTC

1 60485U 24149T   26257.18025211  .00005946  00000-0  18374-3 0  9995
2 60485  97.3766 337.9930 0001765 352.6277   7.4939 15.33904236115722

Sigue TOMORROW-S2 en tiempo real con AllMySat

Download on the App Store